RH
45 36 35 29 51 71 64 54 63 71 84 90 100 100 100 95 98 84 77 100 100 99 94 96 90 87 88 80 79 75 72 72 69 68 67 65 63 64 63 65 62 62 63
58 51 43 68 74 67 60 83 80 81 82 94 100 100 97 99 99 96 82 100 98 93 92 94 87 88 89 82 75 72 74 73 68 72 75 83 73 69 69 68 66 64 65
68 67 87 87 81 69 77 87 98 92 86 91 98 100 99 100 100 95 95 97 99 99 85 91 90 82 75 75 72 70 76 71 70 70 69 92 90 81 75 74 73 72 71
72 73 89 90 83 80 89 93 92 100 93 90 100 95 98 96 94 99 98 98 98 90 88 93 88 77 71 70 67 72 73 73 74 77 74 80 74 87 88 78 78 83 82
74 78 90 83 88 86 89 94 92 89 90 91 99 92 100 100 100 99 100 100 99 94 87 93 82 71 67 66 68 76 76 77 80 84 91 96 98 92 88 94 94 86 85
76 87 87 96 96 92 96 99 96 94 97 98 99 93 95 100 100 97 94 95 94 89 89 84 75 66 66 74 78 87 89 93 92 84 88 94 95 97 94 93 93 90 86
97 96 95 95 95 98 97 98 100 97 99 100 97 96 95 98 98 98 100 100 95 89 82 76 71 62 68 64 73 93 95 93 90 84 87 89 90 85 84 82 84 89 91
96 97 98 97 98 99 99 99 100 100 99 100 100 99 97 97 97 97 96 99 94 95 93 88 88 89 78 83 100 96 83 83 83 83 86 86 87 92 83 84 84 96 97
95 94 90 93 92 94 96 99 98 98 100 100 99 99 100 100 99 94 97 90 88 86 87 91 86 82 82 83 86 99 99 99 92 98 95 96 91 95 91 89 83 81 96
88 81 76 69 63 67 69 70 69 73 81 86 94 100 100 97 89 93 93 87 82 86 90 87 83 77 79 85 88 90 92 100 100 100 100 100 100 99 97 96 98 93 90
65 59 55 52 50 49 52 52 52 52 55 57 60 64 75 84 94 98 100 100 98 99 98 92 90 93 88 92 88 95 100 100 100 100 100 100 100 100 100 100 100 97 89
52 50 50 51 52 54 56 58 55 53 50 47 48 51 53 54 57 59 65 69 79 89 100 100 99 100 100 98 99 100 100 100 100 100 100 100 100 100 100 100 100 96 92
47 52 55 57 60 61 61 62 64 63 58 54 53 52 52 51 52 53 56 58 64 72 80 96 100 99 99 99 100 100 100 100 100 100 100 100 100 100 100 100 100 99 93
50 53 60 65 65 65 64 61 60 61 58 58 61 62 64 64 63 58 54 53 55 60 63 70 83 95 96 99 99 99 100 100 100 100 100 100 100 100 100 100 99 100 99
52 59 65 71 67 66 65 65 63 62 59 62 66 70 75 74 69 66 63 58 56 57 59 62 66 72 84 98 97 99 100 100 100 100 100 100 100 100 100 100 100 98 97
57 61 66 69 71 72 72 68 66 63 64 70 75 81 83 75 73 78 82 83 81 78 71 66 68 67 68 89 94 94 100 100 100 100 99 100 100 100 100 97 88 86 87
56 62 68 68 68 72 73 69 69 69 73 78 83 88 86 88 92 90 89 89 91 90 92 89 83 78 74 71 66 84 99 100 100 100 100 100 100 100 97 96 93 86 76
56 62 67 69 70 74 74 75 75 76 81 83 87 90 91 93 87 87 87 89 90 91 93 95 95 94 86 76 73 71 86 100 100 100 100 100 100 100 100 100 96 89 85
57 63 67 72 75 77 75 75 77 78 80 84 85 87 89 92 88 89 89 88 90 94 95 91 93 91 90 89 82 82 90 100 99 99 100 100 100 100 100 100 95 92 95
61 68 73 74 74 67 66 71 78 78 80 80 80 83 86 88 85 84 86 90 91 93 91 91 90 87 89 74 80 94 99 98 100 100 99 99 100 100 99 97 92 100 95
64 68 69 66 60 56 55 65 71 77 76 74 73 75 81 82 82 84 86 87 87 85 89 89 92 88 91 94 86 98 100 98 99 100 100 100 100 99 98 96 97 99 98
60 58 59 59 57 58 60 67 74 71 72 74 75 73 74 77 81 84 86 86 87 86 82 83 86 87 87 94 87 92 98 99 98 100 100 99 100 100 96 95 98 100 99
59 59 60 60 55 58 65 71 70 79 80 85 82 80 79 82 83 83 81 82 82 82 82 80 83 86 87 89 87 85 96 93 100 99 99 96 95 100 100 100 99 100 98
58 60 60 65 66 64 71 73 75 81 88 86 88 81 82 86 87 88 84 83 87 87 87 84 82 87 92 90 92 97 91 99 100 100 100 100 98 100 100 100 100 99 96
59 60 66 69 70 69 74 75 78 87 90 90 87 87 88 89 88 85 86 88 89 90 92 97 99 98 97 97 98 97 99 100 91 99 100 100 100 100 100 100 100 100 100
61 68 70 75 76 75 78 77 82 91 92 91 90 92 94 94 91 90 86 86 90 90 88 88 90 99 100 100 100 97 95 100 100 100 99 100 100 99 100 100 100 100 99
Wind_Speed
11 24 23 23 20 19 18 19 21 23 24 27 23 25 27 33 35 39 37 40 37 40 37 30 33 37 39 37 35 32 28 27 21 17 18 18 18 19 20 21 21 21 19
7 13 20 18 18 16 14 15 21 23 25 28 28 24 24 34 39 36 35 42 47 45 39 35 35 40 37 36 35 33 27 28 24 13 4 2 7 15 15 19 21 21 19
11 10 10 16 16 13 12 11 18 25 28 28 27 27 32 27 26 31 32 34 41 44 42 43 39 40 36 37 35 34 31 24 25 21 7 2 4 2 10 18 20 21 21
9 7 6 12 11 9 11 12 12 19 24 23 23 19 26 23 21 25 27 35 38 40 39 41 42 39 39 36 33 34 31 25 24 24 21 8 2 3 2 6 17 19 19
7 7 8 10 2 3 10 15 16 20 19 18 16 9 13 21 22 24 23 25 31 39 38 40 37 38 37 36 35 33 31 30 22 20 10 16 9 6 2 2 4 15 21
3 4 5 8 10 11 13 22 22 20 19 15 13 4 6 23 22 15 13 16 21 29 29 31 34 35 36 35 33 31 28 23 23 17 18 15 7 11 6 2 3 9 15
10 10 11 10 15 15 20 24 17 17 17 8 14 9 12 19 19 17 13 14 12 9 10 18 26 30 26 34 35 27 20 17 17 19 20 24 29 27 22 13 6 3 9
9 13 11 14 16 22 22 25 16 17 18 12 16 15 14 15 12 9 5 3 6 2 2 2 4 12 17 11 16 20 22 24 25 26 25 30 35 35 26 23 11 2 5
11 11 12 23 20 21 23 26 36 32 22 13 9 4 3 8 6 5 3 6 8 10 13 14 16 16 17 19 23 22 26 27 27 34 35 37 36 37 36 31 29 18 6
14 12 13 15 18 20 24 31 29 28 26 22 19 12 5 3 1 3 6 8 13 20 23 24 26 27 26 26 29 31 35 30 32 32 32 33 35 37 37 35 34 31 18
9 11 12 17 18 21 24 28 30 31 30 27 25 25 23 18 12 5 6 9 16 22 26 29 31 33 34 34 36 35 35 36 35 34 34 38 37 32 34 37 34 31 27
9 9 11 15 19 20 23 24 27 28 26 24 23 23 20 18 17 15 12 10 11 13 16 21 26 31 31 32 33 35 35 34 34 35 32 35 32 33 35 32 34 31 32
8 8 8 11 14 16 19 20 24 25 26 26 25 24 24 22 20 18 16 15 15 14 14 16 17 20 23 25 28 31 32 33 34 34 32 37 32 34 31 32 29 30 29
6 5 7 10 17 21 26 27 27 26 26 24 22 22 22 22 22 22 21 20 18 18 17 17 18 20 23 25 27 28 29 31 33 37 36 36 34 34 33 32 29 25 28
6 6 7 8 17 20 21 23 22 21 22 22 22 23 22 22 24 25 24 23 22 23 23 23 21 21 22 22 25 26 28 31 31 33 34 36 38 38 38 36 34 34 27
6 6 6 9 10 13 16 17 17 19 21 21 21 23 24 26 28 28 28 28 27 27 28 27 28 28 26 23 25 26 27 29 31 30 34 35 36 37 36 34 34 37 37
1 3 5 7 9 9 12 15 15 16 16 13 15 16 19 22 23 23 25 27 29 31 28 28 29 30 29 27 25 26 29 30 29 29 29 31 34 33 31 31 31 34 34
1 2 2 5 8 9 11 11 10 14 12 13 15 17 18 18 19 19 21 22 23 26 30 33 32 30 31 30 29 28 27 29 30 31 30 30 30 35 33 34 29 32 28
3 4 4 3 4 9 14 11 10 11 12 15 19 22 23 22 23 23 24 25 24 24 24 26 31 36 38 33 30 29 28 25 29 30 31 29 28 29 29 23 31 25 23
5 6 2 3 9 17 20 18 15 16 20 21 22 22 24 24 25 25 27 26 26 27 27 30 28 29 35 35 35 27 27 24 24 27 29 29 29 29 28 30 26 24 29
3 3 6 12 19 22 25 25 23 23 27 29 30 29 26 25 23 25 26 26 27 28 30 30 29 30 29 34 37 30 29 26 23 23 25 29 30 30 29 32 35 32 29
6 13 15 15 16 18 22 25 24 26 29 28 32 32 32 33 31 31 31 31 28 27 28 29 29 27 26 28 34 33 31 30 26 26 26 29 29 33 33 35 30 28 24
7 9 13 16 19 19 17 20 22 19 23 22 27 23 25 26 26 27 27 27 26 25 28 27 27 26 26 28 30 35 32 31 31 29 29 29 28 33 34 35 34 32 28
6 8 11 12 15 15 13 15 18 17 20 21 19 21 21 24 25 24 24 26 26 26 27 29 28 29 28 28 32 30 30 26 28 29 29 28 26 31 30 30 29 33 31
4 5 8 11 15 16 14 15 16 17 17 17 19 20 21 24 28 28 28 30 30 30 34 33 32 30 29 29 31 34 32 23 22 21 23 21 22 23 23 26 29 30 29
5 6 9 11 14 14 14 14 14 15 14 17 18 20 22 25 27 28 35 30 33 35 37 38 37 36 34 35 35 39 36 37 27 20 18 19 22 24 25 25 25 28 27
Wind_Direction
242 258 263 273 256 245 246 255 256 249 235 236 231 237 235 247 237 233 227 216 207 206 205 213 209 217 219 220 219 218 222 225 225 224 234 239 243 245 252 238 220 216 212
261 263 256 239 242 254 267 265 256 247 234 233 235 238 250 247 230 221 216 210 206 206 200 214 216 223 219 217 217 218 217 224 218 206 178 222 247 243 235 223 215 210 210
251 251 215 217 234 264 275 279 260 246 244 249 253 257 271 231 208 215 197 192 202 206 199 213 217 221 219 214 216 218 216 217 217 210 184 150 217 170 225 219 216 215 211
244 232 221 215 224 263 276 277 266 249 250 257 261 278 242 210 203 194 189 193 196 197 203 214 218 219 219 219 219 222 226 220 215 216 222 230 167 178 230 222 220 217 213
236 219 217 229 165 314 299 285 267 255 251 259 259 288 265 183 172 175 182 186 200 208 210 215 216 218 220 224 224 227 225 219 219 204 209 237 244 239 155 194 198 216 218
331 294 256 60 29 355 309 298 260 247 246 242 222 164 19 105 115 145 179 200 198 200 210 216 225 226 225 225 226 231 224 222 228 224 238 247 221 228 191 178 194 203 220
62 61 45 38 17 3 348 332 232 215 211 198 186 148 112 91 96 100 112 130 141 158 193 228 232 234 234 236 232 222 204 205 217 225 228 242 250 246 233 204 191 164 203
48 65 31 30 14 6 0 346 108 174 169 126 125 143 137 108 106 126 131 88 101 163 216 247 264 238 238 242 225 224 222 224 230 236 236 237 242 240 238 217 185 181 193
56 64 63 43 33 16 8 35 49 42 57 45 34 22 140 119 99 96 166 230 266 269 272 273 279 281 269 259 261 255 240 235 238 244 244 243 244 245 240 236 228 211 195
43 46 57 48 44 36 33 42 46 49 47 44 39 31 175 156 68 224 254 262 273 259 256 257 265 267 264 263 256 257 260 255 247 248 246 244 240 243 243 241 232 219 209
56 45 40 39 40 42 41 41 42 43 45 47 48 51 51 51 48 27 324 296 278 272 261 258 256 261 261 258 249 249 248 241 241 246 247 242 239 235 243 237 229 218 211
48 45 34 24 30 30 32 37 39 39 36 35 36 36 40 40 36 28 15 355 335 307 304 280 273 258 257 255 247 245 249 242 237 240 233 240 242 250 237 241 224 215 214
35 26 30 33 29 27 33 32 34 31 28 26 25 24 21 17 13 8 3 359 349 333 318 307 300 292 286 280 267 253 245 243 248 255 242 244 237 232 231 225 212 207 207
36 32 26 16 18 21 21 22 24 24 22 22 24 22 16 8 0 353 348 342 339 333 328 318 308 297 290 286 283 277 270 264 257 253 252 248 236 230 226 216 212 207 192
25 22 19 10 14 15 17 17 20 18 15 14 15 13 8 3 356 351 346 338 332 327 323 319 315 309 300 291 288 286 278 271 264 258 250 246 245 242 227 212 203 203 196
17 8 8 359 4 8 11 5 3 11 11 12 10 6 1 350 347 344 342 339 336 333 327 320 315 311 307 301 292 285 275 269 261 253 255 251 249 239 233 228 220 210 197
2 15 7 351 350 359 357 360 1 6 13 6 4 358 349 346 344 340 333 333 331 327 323 320 317 310 302 296 293 288 284 272 263 254 249 247 248 238 227 225 227 220 216
284 329 303 326 346 355 353 346 357 13 11 6 359 354 348 345 337 333 330 323 319 317 317 315 311 305 302 303 295 287 282 277 270 264 258 252 247 238 228 218 209 212 211
265 263 261 280 350 2 6 8 17 14 8 4 358 353 350 344 340 335 329 323 316 307 299 299 300 300 302 301 299 293 282 267 263 267 262 254 250 244 227 214 204 205 205
222 222 291 12 15 13 10 14 13 10 7 357 347 343 346 341 334 327 322 318 315 308 307 302 298 290 285 299 297 280 272 267 253 249 251 253 246 241 222 213 213 208 200
220 15 13 19 13 6 2 2 357 2 349 345 342 340 337 331 325 320 320 313 312 312 310 302 298 288 279 281 295 279 262 258 253 233 233 238 237 233 220 212 209 210 204
13 10 9 5 358 358 356 352 344 338 337 330 329 327 325 325 325 324 320 319 317 309 306 305 303 304 295 276 289 284 268 259 251 237 234 241 240 234 217 214 215 210 206
357 355 359 348 346 347 346 331 318 311 320 309 317 308 311 312 312 310 310 309 311 309 308 306 303 301 301 302 292 286 272 267 252 243 239 243 245 227 221 208 203 204 197
346 351 345 327 316 322 312 311 314 309 313 312 307 311 310 311 314 315 317 314 308 305 301 300 299 298 294 291 290 287 274 266 258 249 234 232 231 206 199 186 186 200 200
311 318 310 308 310 318 305 311 309 315 312 311 315 320 322 323 322 319 317 314 306 302 301 298 294 293 290 283 280 282 290 252 259 245 217 201 190 185 178 172 178 191 191
280 283 286 291 299 308 301 313 324 319 321 328 323 319 318 317 318 316 314 313 307 308 305 301 298 295 287 285 279 278 273 271 256 204 194 195 191 183 176 172 171 179 181